Location: Recife
(8.0585°S, 34.8848°W)
Time: 10:47:57
(UTC-03:00)

Altair - Pass Details

Date: 23 April 2026
Orbit: 1501 x 1682 km, 47.2° (Epoch: 20 May)

Event Time Altitude Azimuth Distance (km) Brightness Sun altitude
Rises 04:31:45 0° 199° (SSW) 4,770 9.8 -12.9°
Reaches altitude 10° 04:36:07 10° 182° (S) 3,817 9.4 -11.9°
Maximum altitude 04:42:39 20° 139° (SE) 3,164 9.5 -10.3°
Drops below altitude 10° 04:49:16 10° 96° (E) 3,900 11.0 -8.7°
Sets 04:53:43 0° 80° (E) 4,906 12.8 -7.6°
